Regional Weather Roundup
Issued by NWS

Home | Current Version | Previous Version | Graphics & Text | Print | Product List | Glossary On
Versions: 1 2 3 4 5 6 7 8 9 10 11 12 13 14 15 16 17 18 19 20 21 22 23 24 25 26 27 28 29 30 31 32 33 34 35 36 37 38 39 40 41 42 43 44 45 46 47 48 49 50
588
ASUS44 KLIX 011311
RWRLA
LOUISIANA WEATHER ROUNDUP
NATIONAL WEATHER SERVICE NEW ORLEANS LA
800 AM CDT WED APR 01 2015

NOTE: "FAIR" INDICATES FEW OR NO CLOUDS BELOW 12,000 FEET WITH NO
      SIGNIFICANT WEATHER AND/OR OBSTRUCTIONS TO VISIBILITY.
      SKY/WX - SKY CONDITION AND SIGNIFICANT WEATHER.
      TMP - AIR TEMPERATURE.    DP   - DEWPOINT TEMPERATURE.
      RH  - RELATIVE HUMIDITY.  PRES - PRESSURE.
      HX  - HEAT INDEX.         WCI  - WIND CHILL INDEX.

*  THESE STATIONS ARE NOT NWS OR FAA STATIONS AND ARE NOT UNDER
   NWS QUALITY CONTROL.

LAZ040-048-061>063-065-066-069-011400-
SOUTHEAST LOUISIANA

CITY           SKY/WX    TMP DP  RH WIND       PRES   REMARKS
N.O. AUDUBON     N/A     67  67 100 MISG        N/A
N.O. INTL ARPT PTSUNNY   67  64  90 CALM      30.06R
N.O. LAKEFRONT CLOUDY    69  64  84 SE3       30.07R
SLIDELL        FOG       62  62 100 CALM      30.07R VSB 1/4
BATON ROUGE    CLOUDY    61  60  97 NE5       30.05R FOG
BOOTHVILLE     PTSUNNY   67  65  93 SE3       30.08R
BELLE CHASSE   PTSUNNY   63  62  97 CALM      30.06R FOG
BOGALUSA*      FOG       64  61  91 CALM      30.09R VSB 1/4
GALLIANO*      MOSUNNY   58  57  99 S3        30.07R
NEW ROADS*     FOG       64  63  97 CALM      30.05R VSB 1/4
GONZALES*      FAIR      62  62 100 CALM      30.06R FOG
HAMMOND*       CLOUDY    63  61  94 CALM      30.08R FOG
HOUMA*         MOSUNNY   61  61 100 CALM      30.06R
PORT FOURCHON* SUNNY     72  68  88 E6        30.10R

$$

LAZ041-044-053-054-011400-
SOUTHWEST LOUISIANA

CITY           SKY/WX    TMP DP  RH WIND       PRES   REMARKS
LAKE CHARLES   FOG       64  63  96 NE3       30.03R VSB 3/4
LAFAYETTE      FOG       65  64  97 CALM      30.04R VSB 1
PATTERSON      PTSUNNY   63  61  94 CALM      30.07R
SALT POINT       N/A     67  66  97 SE3       30.04R
NEW IBERIA     PTSUNNY   64  63  96 SE3       30.05R FOG
CHENAULT AIRPK FOG       63  63 100 CALM      30.02S VSB 1/4

$$

LAZ027-028-011400-
CENTRAL LOUISIANA

CITY           SKY/WX    TMP DP  RH WIND       PRES   REMARKS
FORT POLK      FOG       67  65  96 S6        30.01S VSB 5/8
ALEXANDRIA INT PTSUNNY   65  64  97 S5        30.02R FOG
ALEXANDRIA     PTSUNNY   66  64  93 CALM      30.02S

$$

LAZ001-002-011400-
NORTHWEST LOUISIANA

CITY           SKY/WX    TMP DP  RH WIND       PRES   REMARKS
SHREVEPORT     CLOUDY    66  64  93 SE3       29.97S FOG
BARKSDALE AFB  MOSUNNY   65  65 100 SE7       29.97F
DTN SHREVEPORT MOSUNNY   66  63  90 SE3       29.97F FOG

$$

LAZ014-016-011400-
NORTHEAST LOUISIANA

CITY           SKY/WX    TMP DP  RH WIND       PRES   REMARKS
MONROE         PTSUNNY   67  65  93 S3        30.03R
TALLULAH       CLOUDY    67  63  87 VRB3      30.05R

$$




USA.gov is the U.S. government's official web portal to all federal, state and local government web resources and services.